Time,TemperatureF,DewpointF,PressureIn,WindDirection,WindDirectionDegrees,WindSpeedMPH,WindSpeedGustMPH,Humidity,HourlyPrecipIn,Conditions,Clouds,dailyrainin,SoftwareType,DateUTC
2013-05-28 00:08:00,58.1,53.9,30.20,NNW,337,0.0,-999.0,86,-99.99,,,0.00,Acu-Link.com,2013-05-28 04:08:00,
2013-05-28 00:23:00,58.3,54.4,30.19,SSE,157,0.0,-999.0,87,-99.99,,,0.00,Acu-Link.com,2013-05-28 04:23:00,
2013-05-28 00:38:00,58.3,54.4,30.19,NNE,22,0.0,-999.0,87,-99.99,,,0.00,Acu-Link.com,2013-05-28 04:38:00,
2013-05-28 00:54:00,58.5,54.6,30.19,NNE,22,0.0,-999.0,87,-99.99,,,0.00,Acu-Link.com,2013-05-28 04:54:00,
2013-05-28 01:09:00,58.3,54.1,30.19,SW,225,0.0,-999.0,86,-99.99,,,0.00,Acu-Link.com,2013-05-28 05:09:00,
2013-05-28 01:24:00,58.1,54.2,30.19,NNE,22,0.0,-999.0,87,-99.99,,,0.00,Acu-Link.com,2013-05-28 05:24:00,
2013-05-28 01:39:00,58.1,53.9,30.19,NNE,22,0.0,-999.0,86,-99.99,,,0.00,Acu-Link.com,2013-05-28 05:39:00,
2013-05-28 01:54:00,57.9,53.7,30.18,WNW,292,0.0,-999.0,86,-99.99,,,0.00,Acu-Link.com,2013-05-28 05:54:00,
2013-05-28 02:10:00,57.9,53.7,30.19,WNW,292,0.0,-999.0,86,-99.99,,,0.00,Acu-Link.com,2013-05-28 06:10:00,
2013-05-28 02:25:00,58.3,54.1,30.19,NNE,22,0.0,-999.0,86,-99.99,,,0.00,Acu-Link.com,2013-05-28 06:25:00,
2013-05-28 02:40:00,58.6,54.4,30.18,South,180,0.0,-999.0,86,-99.99,,,0.00,Acu-Link.com,2013-05-28 06:40:00,
2013-05-28 02:55:00,59.0,54.5,30.18,ESE,112,0.0,-999.0,85,-99.99,,,0.00,Acu-Link.com,2013-05-28 06:55:00,
2013-05-28 03:11:00,59.0,54.2,30.18,ESE,112,0.0,-999.0,84,-99.99,,,0.00,Acu-Link.com,2013-05-28 07:11:00,
2013-05-28 03:26:00,59.2,54.0,30.18,SSE,157,0.0,-999.0,83,-99.99,,,0.00,Acu-Link.com,2013-05-28 07:26:00,
2013-05-28 03:41:00,59.4,53.2,30.17,SSE,157,0.0,-999.0,80,-99.99,,,0.00,Acu-Link.com,2013-05-28 07:41:00,
2013-05-28 03:56:00,59.4,52.9,30.17,SSE,157,0.0,-999.0,79,-99.99,,,0.00,Acu-Link.com,2013-05-28 07:56:00,
2013-05-28 04:12:00,59.4,52.9,30.17,SE,135,0.0,-999.0,79,-99.99,,,0.00,Acu-Link.com,2013-05-28 08:12:00,
2013-05-28 04:27:00,59.4,52.9,30.17,North,0,0.0,-999.0,79,-99.99,,,0.00,Acu-Link.com,2013-05-28 08:27:00,
2013-05-28 04:42:00,59.5,52.6,30.17,East,90,0.0,-999.0,78,-99.99,,,0.00,Acu-Link.com,2013-05-28 08:42:00,
2013-05-28 04:57:00,59.4,52.5,30.16,ESE,112,0.0,-999.0,78,-99.99,,,0.00,Acu-Link.com,2013-05-28 08:57:00,
2013-05-28 05:12:00,59.4,52.9,30.16,West,270,0.0,-999.0,79,-99.99,,,0.00,Acu-Link.com,2013-05-28 09:12:00,
2013-05-28 05:27:00,58.8,53.0,30.16,SSE,157,0.0,-999.0,81,-99.99,,,0.00,Acu-Link.com,2013-05-28 09:27:00,
2013-05-28 05:43:00,58.6,53.1,30.17,North,0,0.0,-999.0,82,-99.99,,,0.00,Acu-Link.com,2013-05-28 09:43:00,
2013-05-28 05:58:00,59.0,53.8,30.17,ESE,112,0.0,-999.0,83,-99.99,,,0.00,Acu-Link.com,2013-05-28 09:58:00,
2013-05-28 06:13:00,59.7,54.5,30.17,SW,225,0.0,-999.0,83,-99.99,,,0.00,Acu-Link.com,2013-05-28 10:13:00,
2013-05-28 06:28:00,60.1,54.9,30.17,ENE,67,0.0,-999.0,83,-99.99,,,0.00,Acu-Link.com,2013-05-28 10:28:00,
2013-05-28 06:43:00,60.6,55.4,30.18,SSW,202,0.0,-999.0,83,-99.99,,,0.00,Acu-Link.com,2013-05-28 10:43:00,
2013-05-28 06:59:00,61.9,56.7,30.17,SSW,202,0.0,-999.0,83,-99.99,,,0.00,Acu-Link.com,2013-05-28 10:59:00,
2013-05-28 07:14:00,62.2,56.6,30.18,SE,135,0.0,-999.0,82,-99.99,,,0.00,Acu-Link.com,2013-05-28 11:14:00,
2013-05-28 07:29:00,62.4,56.8,30.18,SE,135,1.1,-999.0,82,-99.99,,,0.00,Acu-Link.com,2013-05-28 11:29:00,
2013-05-28 07:44:00,62.6,57.4,30.19,SSW,202,2.2,-999.0,83,-99.99,,,0.00,Acu-Link.com,2013-05-28 11:44:00,
2013-05-28 07:59:00,62.6,58.0,30.19,West,270,0.0,-999.0,85,-99.99,,,0.00,Acu-Link.com,2013-05-28 11:59:00,
2013-05-28 08:15:00,62.8,58.2,30.20,West,270,0.0,-999.0,85,-99.99,,,0.00,Acu-Link.com,2013-05-28 12:15:00,
2013-05-28 08:30:00,63.1,57.8,30.19,NNW,337,0.0,-999.0,83,-99.99,,,0.00,Acu-Link.com,2013-05-28 12:30:00,
2013-05-28 08:45:00,63.1,57.5,30.20,SSW,202,0.0,-999.0,82,-99.99,,,0.00,Acu-Link.com,2013-05-28 12:45:00,
2013-05-28 09:00:00,62.8,57.6,30.20,South,180,0.0,-999.0,83,-99.99,,,0.01,Acu-Link.com,2013-05-28 13:00:00,
2013-05-28 09:15:00,62.8,57.2,30.19,East,90,2.2,-999.0,82,-99.99,,,0.01,Acu-Link.com,2013-05-28 13:15:00,
2013-05-28 09:31:00,65.3,58.6,30.18,SE,135,4.7,-999.0,79,-99.99,,,0.01,Acu-Link.com,2013-05-28 13:31:00,
2013-05-28 09:46:00,67.8,58.8,30.18,SSE,157,4.7,-999.0,73,-99.99,,,0.01,Acu-Link.com,2013-05-28 13:46:00,
2013-05-28 10:01:00,69.1,59.7,30.17,ENE,67,2.2,-999.0,72,-99.99,,,0.01,Acu-Link.com,2013-05-28 14:01:00,
2013-05-28 10:16:00,69.1,59.7,30.17,SE,135,2.7,-999.0,72,-99.99,,,0.01,Acu-Link.com,2013-05-28 14:16:00,
2013-05-28 10:32:00,67.6,59.8,30.17,SSE,157,2.2,-999.0,76,-99.99,,,0.01,Acu-Link.com,2013-05-28 14:32:00,
2013-05-28 10:47:00,67.1,60.0,30.17,ESE,112,2.7,-999.0,78,-99.99,,,0.01,Acu-Link.com,2013-05-28 14:47:00,
2013-05-28 11:02:00,67.5,60.4,30.16,South,180,1.7,-999.0,78,-99.99,,,0.01,Acu-Link.com,2013-05-28 15:02:00,
2013-05-28 11:17:00,68.7,60.8,30.16,SSE,157,2.7,-999.0,76,-99.99,,,0.01,Acu-Link.com,2013-05-28 15:17:00,
2013-05-28 11:32:00,69.3,61.8,30.17,WNW,292,0.0,-999.0,77,-99.99,,,0.01,Acu-Link.com,2013-05-28 15:32:00,
2013-05-28 11:48:00,68.5,62.8,30.16,NW,315,0.0,-999.0,82,-99.99,,,0.03,Acu-Link.com,2013-05-28 15:48:00,
2013-05-28 12:03:00,69.1,63.7,30.16,NNE,22,0.0,-999.0,83,-99.99,,,0.07,Acu-Link.com,2013-05-28 16:03:00,
2013-05-28 12:18:00,68.4,63.4,30.15,ESE,112,3.7,-999.0,84,-99.99,,,0.07,Acu-Link.com,2013-05-28 16:18:00,
2013-05-28 12:33:00,68.4,63.7,30.14,NW,315,1.1,-999.0,85,-99.99,,,0.07,Acu-Link.com,2013-05-28 16:33:00,
2013-05-28 12:48:00,70.0,64.9,30.14,South,180,1.7,-999.0,84,-99.99,,,0.07,Acu-Link.com,2013-05-28 16:48:00,
2013-05-28 13:04:00,70.7,64.6,30.14,NNW,337,3.2,-999.0,81,-99.99,,,0.07,Acu-Link.com,2013-05-28 17:04:00,
2013-05-28 13:19:00,72.7,65.8,30.14,ESE,112,0.0,-999.0,79,-99.99,,,0.07,Acu-Link.com,2013-05-28 17:19:00,
2013-05-28 13:34:00,74.8,66.3,30.13,South,180,0.0,-999.0,75,-99.99,,,0.07,Acu-Link.com,2013-05-28 17:34:00,
2013-05-28 13:50:00,77.7,64.5,30.13,West,270,0.0,-999.0,64,-99.99,,,0.07,Acu-Link.com,2013-05-28 17:50:00,
2013-05-28 14:05:00,77.0,63.9,30.12,ESE,112,3.7,-999.0,64,-99.99,,,0.07,Acu-Link.com,2013-05-28 18:05:00,
2013-05-28 14:20:00,78.1,64.0,30.12,SW,225,0.0,-999.0,62,-99.99,,,0.07,Acu-Link.com,2013-05-28 18:20:00,
2013-05-28 14:35:00,79.5,64.9,30.11,West,270,4.2,-999.0,61,-99.99,,,0.07,Acu-Link.com,2013-05-28 18:35:00,
2013-05-28 14:50:00,79.7,64.1,30.12,SW,225,5.3,-999.0,59,-99.99,,,0.07,Acu-Link.com,2013-05-28 18:50:00,
2013-05-28 15:06:00,80.4,64.2,30.11,South,180,7.8,-999.0,58,-99.99,,,0.07,Acu-Link.com,2013-05-28 19:06:00,
2013-05-28 15:21:00,81.0,64.3,30.11,SSE,157,6.8,-999.0,57,-99.99,,,0.07,Acu-Link.com,2013-05-28 19:21:00,
2013-05-28 15:36:00,81.0,64.3,30.10,South,180,2.2,-999.0,57,-99.99,,,0.07,Acu-Link.com,2013-05-28 19:36:00,
2013-05-28 15:51:00,80.2,64.1,30.10,South,180,6.8,-999.0,58,-99.99,,,0.07,Acu-Link.com,2013-05-28 19:51:00,
2013-05-28 16:06:00,80.8,64.6,30.10,South,180,5.3,-999.0,58,-99.99,,,0.07,Acu-Link.com,2013-05-28 20:06:00,
2013-05-28 16:22:00,78.6,62.6,30.10,West,270,6.3,-999.0,58,-99.99,,,0.07,Acu-Link.com,2013-05-28 20:22:00,
2013-05-28 16:37:00,79.5,62.9,30.09,SW,225,7.3,-999.0,57,-99.99,,,0.07,Acu-Link.com,2013-05-28 20:37:00,
2013-05-28 16:52:00,80.1,63.5,30.09,WNW,292,0.0,-999.0,57,-99.99,,,0.07,Acu-Link.com,2013-05-28 20:52:00,
2013-05-28 17:07:00,80.6,63.4,30.09,ESE,112,4.2,-999.0,56,-99.99,,,0.07,Acu-Link.com,2013-05-28 21:07:00,
2013-05-28 17:22:00,79.9,63.8,30.08,SE,135,5.8,-999.0,58,-99.99,,,0.07,Acu-Link.com,2013-05-28 21:22:00,
2013-05-28 17:38:00,79.9,63.3,30.08,South,180,6.3,-999.0,57,-99.99,,,0.07,Acu-Link.com,2013-05-28 21:38:00,
2013-05-28 17:53:00,78.8,62.8,30.08,ESE,112,6.8,-999.0,58,-99.99,,,0.07,Acu-Link.com,2013-05-28 21:53:00,
2013-05-28 18:08:00,78.8,63.2,30.07,South,180,1.1,-999.0,59,-99.99,,,0.07,Acu-Link.com,2013-05-28 22:08:00,
2013-05-28 18:24:00,77.9,62.9,30.07,South,180,2.2,-999.0,60,-99.99,,,0.07,Acu-Link.com,2013-05-28 22:24:00,
2013-05-28 18:39:00,76.6,62.1,30.07,ESE,112,5.3,-999.0,61,-99.99,,,0.07,Acu-Link.com,2013-05-28 22:39:00,
2013-05-28 18:54:00,75.9,61.9,30.07,ESE,112,2.7,-999.0,62,-99.99,,,0.07,Acu-Link.com,2013-05-28 22:54:00,
2013-05-28 19:09:00,74.8,61.3,30.07,West,270,2.2,-999.0,63,-99.99,,,0.07,Acu-Link.com,2013-05-28 23:09:00,
2013-05-28 19:24:00,73.9,61.4,30.07,ENE,67,7.8,-999.0,65,-99.99,,,0.07,Acu-Link.com,2013-05-28 23:24:00,
2013-05-28 19:40:00,72.7,60.7,30.07,WSW,247,6.3,-999.0,66,-99.99,,,0.07,Acu-Link.com,2013-05-28 23:40:00,
2013-05-28 19:55:00,71.6,60.5,30.08,SSE,157,2.7,-999.0,68,-99.99,,,0.07,Acu-Link.com,2013-05-28 23:55:00,
2013-05-28 20:10:00,70.7,60.0,30.07,ENE,67,4.7,-999.0,69,-99.99,,,0.07,Acu-Link.com,2013-05-29 00:10:00,
2013-05-28 20:26:00,69.8,59.2,30.08,South,180,3.7,-999.0,69,-99.99,,,0.07,Acu-Link.com,2013-05-29 00:26:00,
2013-05-28 20:41:00,69.4,58.8,30.07,ESE,112,6.8,-999.0,69,-99.99,,,0.07,Acu-Link.com,2013-05-29 00:41:00,
2013-05-28 20:56:00,68.9,58.7,30.07,SSE,157,4.7,-999.0,70,-99.99,,,0.07,Acu-Link.com,2013-05-29 00:56:00,
2013-05-28 21:11:00,68.2,58.4,30.07,ESE,112,3.7,-999.0,71,-99.99,,,0.07,Acu-Link.com,2013-05-29 01:11:00,
2013-05-28 21:26:00,67.6,58.2,30.08,ESE,112,1.7,-999.0,72,-99.99,,,0.07,Acu-Link.com,2013-05-29 01:26:00,
2013-05-28 21:42:00,67.5,58.1,30.08,SSE,157,3.7,-999.0,72,-99.99,,,0.07,Acu-Link.com,2013-05-29 01:42:00,
2013-05-28 21:57:00,67.3,58.3,30.09,ESE,112,3.7,-999.0,73,-99.99,,,0.07,Acu-Link.com,2013-05-29 01:57:00,
2013-05-28 22:12:00,67.3,58.3,30.08,ENE,67,1.7,-999.0,73,-99.99,,,0.07,Acu-Link.com,2013-05-29 02:12:00,
2013-05-28 22:28:00,67.3,58.3,30.09,ESE,112,0.0,-999.0,73,-99.99,,,0.07,Acu-Link.com,2013-05-29 02:28:00,
2013-05-28 22:43:00,67.5,58.5,30.09,WSW,247,3.7,-999.0,73,-99.99,,,0.07,Acu-Link.com,2013-05-29 02:43:00,
2013-05-28 22:58:00,67.6,58.6,30.10,East,90,4.2,-999.0,73,-99.99,,,0.07,Acu-Link.com,2013-05-29 02:58:00,
2013-05-28 23:13:00,66.6,59.2,30.09,West,270,2.7,-999.0,77,-99.99,,,0.07,Acu-Link.com,2013-05-29 03:13:00,
2013-05-28 23:28:00,65.8,59.8,30.10,WSW,247,0.0,-999.0,81,-99.99,,,0.07,Acu-Link.com,2013-05-29 03:28:00,
2013-05-28 23:44:00,65.7,60.4,30.09,ESE,112,0.0,-999.0,83,-99.99,,,0.07,Acu-Link.com,2013-05-29 03:44:00,
2013-05-28 23:59:00,65.3,60.3,30.08,SSW,202,2.2,-999.0,84,-99.99,,,0.07,Acu-Link.com,2013-05-29 03:59:00,